FW0887 Weather Reports


Display with metric or nautical units.
time (UTC)temp
F
wind
direction
speed
MPH
gust
MPH
rain 1hr
in
rain 24hr
in
rain mn
in
humidity
%
barometer
mb
20260901094524 65 275 1.0 5.0 0.00 0.02 0.00 72 1021.0
20260901093023 65 297 0.0 2.0 0.00 0.02 0.00 74 1021.1
20260901091522 65 355 1.0 3.0 0.00 0.02 0.00 74 1021.3
20260901090031 65 299 1.0 5.0 0.00 0.02 0.00 73 1021.2
20260901085940 66 0.0 1.0 0.00 0.02 0.00 75 1022.5
20260901084519 66 245 1.0 4.0 0.00 0.02 0.00 78 1021.3
20260901083029 64 29 0.0 4.0 0.00 0.02 0.00 78 1021.1
20260901081516 63 216 0.0 5.0 0.00 0.02 0.00 79 1021.1
20260901080122 63 0.0 0.0 0.00 0.02 0.00 81 1022.1
20260901080011 63 200 0.0 3.0 0.00 0.02 0.00 81 1021.0
20260901074516 62 200 0.0 2.0 0.00 0.02 0.00 82 1020.9
20260901073019 62 200 0.0 5.0 0.00 0.02 0.00 86 1021.0
20260901071503 61 177 0.0 3.0 0.00 0.02 0.00 90 1020.8
20260901070010 59 203 1.0 2.0 0.00 0.02 0.00 91 1021.8
20260901070002 59 198 0.0 3.0 0.00 0.02 0.00 91 1020.9
20260901063102 57 191 0.0 0.0 0.00 0.02 0.00 91 1021.0
20260901061610 56 191 0.0 2.0 0.00 0.02 0.00 91 1020.9
20260901060103 55 191 0.0 1.0 0.00 0.02 0.00 91 1020.8
20260901060045 56 0.0 0.0 0.00 0.02 0.00 90 1021.9
20260901054559 55 191 0.0 0.0 0.00 0.03 0.00 90 1020.9
20260901053120 55 191 0.0 0.0 0.00 0.03 0.00 90 1020.8
20260901051555 55 191 0.0 0.0 0.00 0.03 0.00 90 1020.7
20260901050056 54 191 1.0 4.0 0.00 0.03 0.00 90 1020.6
20260901045913 55 0.0 0.0 0.00 0.03 0.00 90 1021.5
20260901044550 55 191 0.0 0.0 0.00 0.09 0.00 90 1020.5
20260901043049 55 191 0.0 2.0 0.00 0.09 0.00 90 1020.5
20260901041547 55 191 0.0 2.0 0.00 0.09 0.00 89 1020.2
20260901040046 55 191 0.0 2.0 0.00 0.09 0.00 89 1020.1
20260901040005 55 0.0 1.0 0.00 0.10 0.00 88 1021.2
20260901034543 55 191 0.0 1.0 0.00 0.28 0.00 88 1020.1
20260901033049 56 191 0.0 1.0 0.00 0.28 0.00 88 1019.9
20260901031640 56 191 0.0 1.0 0.00 0.28 0.00 88 1019.9
20260901030038 57 191 0.0 2.0 0.00 0.28 0.00 87 1020.0
20260901025916 57 0.0 0.0 0.00 0.28 0.00 87 1021.2
20260901024537 57 191 0.0 3.0 0.00 0.28 0.00 87 1020.0
20260901023039 57 191 0.0 3.0 0.00 0.28 0.00 87 1019.7
20260901021533 58 175 0.0 3.0 0.00 0.28 0.00 87 1019.7
20260901020034 58 175 0.0 2.0 0.00 0.28 0.00 87 1019.5
20260901015852 58 158 1.0 2.0 0.00 0.28 0.00 87 1020.7
20260901014530 58 213 0.0 1.0 0.00 0.28 0.00 87 1019.5
20260901013032 58 213 0.0 1.0 0.00 0.28 0.00 86 1019.4
20260901011529 58 213 0.0 0.0 0.00 0.28 0.00 86 1019.4
20260901010036 58 213 0.0 0.0 0.00 0.28 0.00 86 1019.3
20260901005924 58 0.0 0.0 0.00 0.28 0.00 86 1020.7
20260901004527 58 213 0.0 0.0 0.00 0.28 0.00 86 1019.3
20260901003027 58 213 0.0 0.0 0.00 0.28 0.00 86 1019.2
20260901001626 58 213 0.0 2.0 0.00 0.28 0.00 87 1019.2
20260901000025 58 213 0.0 2.0 0.00 0.28 0.00 86 1019.3
20260831235854 59 203 1.0 2.0 0.00 0.28 0.00 86 1020.5
20260831234523 58 213 1.0 4.0 0.00 0.28 0.00 86 1019.3
20260831233021 58 199 1.0 3.0 0.00 0.28 0.00 86 1019.0
20260831231522 59 208 0.0 7.0 0.00 0.28 0.00 86 1019.1
20260831230021 59 217 1.0 5.0 0.00 0.28 0.00 85 1019.1
20260831225926 59 225 1.0 3.0 0.02 0.28 0.00 85 1020.2
20260831224518 59 226 3.0 8.0 0.02 0.28 0.00 85 1019.2
20260831223019 60 210 1.0 6.0 0.02 0.28 0.00 84 1019.1
20260831221523 60 210 0.0 0.0 0.02 0.28 0.00 83 1018.9
20260831220026 61 0.0 1.0 0.02 0.28 0.28 80 1019.9
20260831220011 61 210 0.0 0.0 0.02 0.28 0.00 82 1019.0
20260831214508 60 210 2.0 5.0 0.00 0.26 0.26 80 1018.7
20260831213006 60 208 2.0 4.0 0.00 0.26 0.26 78 1018.6
20260831211506 61 208 0.0 4.0 0.00 0.26 0.26 76 1018.3
20260831210007 61 218 2.0 5.0 0.00 0.26 0.26 75 1018.4
20260831205953 62 203 2.0 4.0 0.00 0.26 0.26 74 1019.3
20260831204506 62 217 1.0 8.0 0.00 0.26 0.26 73 1018.2
20260831203002 63 221 4.0 9.0 0.00 0.26 0.26 72 1018.1
20260831201600 63 208 2.0 10.0 0.00 0.26 0.26 71 1017.8
20260831200059 64 254 3.0 10.0 0.00 0.26 0.26 69 1017.5
20260831195831 65 203 3.0 6.0 0.00 0.26 0.26 67 1018.5
20260831194651 64 250 1.0 14.0 0.00 0.26 0.26 67 1017.3
20260831193057 65 279 2.0 7.0 0.00 0.26 0.26 67 1017.2
20260831191555 66 209 1.0 8.0 0.00 0.26 0.26 67 1017.0
20260831190105 66 286 4.0 12.0 0.00 0.26 0.26 65 1016.9
20260831185903 66 270 3.0 8.0 0.00 0.26 0.26 66 1017.7
20260831184550 65 216 2.0 6.0 0.00 0.26 0.26 67 1016.2
20260831183051 65 213 4.0 9.0 0.00 0.26 0.26 68 1016.0
20260831181549 65 274 0.0 2.0 0.00 0.26 0.26 68 1015.9
20260831180048 66 274 0.0 3.0 0.00 0.26 0.26 66 1015.8
20260831175840 67 0.0 1.0 0.00 0.26 0.26 66 1016.7
20260831174551 66 247 1.0 9.0 0.00 0.26 0.26 66 1015.4
20260831173046 68 209 1.0 6.0 0.00 0.26 0.26 64 1015.3
20260831171548 68 205 3.0 14.0 0.00 0.26 0.26 62 1015.2
20260831170125 70 240 1.0 10.0 0.00 0.26 0.26 63 1015.2
20260831165804 71 225 2.0 6.0 0.00 0.26 0.26 62 1016.5
20260831164544 70 282 3.0 10.0 0.00 0.26 0.26 63 1015.2
20260831163045 71 212 3.0 12.0 0.00 0.26 0.26 63 1015.0
20260831161543 71 282 3.0 13.0 0.00 0.26 0.26 61 1015.0
20260831160043 70 213 3.0 7.0 0.00 0.26 0.26 62 1015.0
20260831155855 71 225 2.0 4.0 0.00 0.26 0.26 61 1016.2
20260831154549 71 298 4.0 14.0 0.00 0.26 0.26 60 1015.0
20260831153041 72 219 4.0 13.0 0.00 0.26 0.26 61 1014.8
20260831151541 73 265 1.0 14.0 0.00 0.26 0.26 65 1014.9
20260831150041 73 191 6.0 11.0 0.00 0.26 0.26 64 1015.0
20260831145803 74 203 8.0 10.0 0.00 0.26 0.26 62 1016.6
20260831144539 73 219 5.0 10.0 0.00 0.26 0.26 63 1015.3
20260831143039 73 222 6.0 12.0 0.00 0.26 0.26 62 1015.2
20260831141540 74 207 8.0 14.0 0.00 0.26 0.26 61 1015.3
20260831140136 73 198 3.0 9.0 0.00 0.26 0.26 65 1015.3
20260831135832 73 248 2.0 2.0 0.00 0.26 0.26 66 1016.8
20260831134536 72 277 4.0 10.0 0.00 0.26 0.26 65 1015.5
20260831133036 70 225 5.0 16.0 0.00 0.26 0.26 66 1015.6
20260831131533 70 207 2.0 16.0 0.00 0.26 0.26 65 1015.7
20260831130033 72 243 8.0 17.0 0.00 0.26 0.26 61 1015.6
20260831125804 74 203 5.0 11.0 0.00 0.26 0.26 63 1017.0
20260831124536 73 293 6.0 16.0 0.00 0.26 0.26 63 1015.6
20260831123030 73 259 3.0 15.0 0.00 0.26 0.26 66 1015.6
20260831121529 72 199 5.0 15.0 0.00 0.26 0.26 66 1015.5
20260831120031 72 200 3.0 21.0 0.00 0.26 0.26 68 1015.6
20260831115843 72 248 1.0 2.0 0.00 0.26 0.26 71 1016.9
20260831114523 71 205 7.0 17.0 0.00 0.26 0.26 69 1015.4
20260831113023 71 198 3.0 11.0 0.00 0.26 0.26 69 1015.6
20260831111528 69 226 2.0 15.0 0.00 0.26 0.26 75 1015.6
20260831110018 69 290 2.0 9.0 0.00 0.26 0.26 76 1015.5
20260831105813 68 270 2.0 3.0 0.00 0.26 0.26 78 1016.8
20260831104522 67 267 1.0 9.0 0.00 0.26 0.26 79 1015.5
20260831103035 67 252 1.0 4.0 0.00 0.26 0.26 77 1015.5
20260831101512 67 278 1.0 11.0 0.00 0.26 0.26 80 1015.6
20260831100011 65 217 4.0 12.0 0.00 0.26 0.26 82 1015.7
20260831095921 66 293 1.0 2.0 0.00 0.26 0.26 83 1017.2